Home   Weather   Bridgewater   Past weeks

Flag for USA Past Weather in Bridgewater, Massachusetts, USA — Yesterday and Last 2 Weeks

Now
24 °F

Clear.


Feels Like: 15 °F
Forecast: 17 / 31 °F
Wind: 8 mph from Northwest

Location: Taunton Municipal Airport

Current Time: Dec 10, 2016 at 2:18:10 am

Latest Report: Dec 10, 2016 at 1:52 am


Visibility: 10 mi

Pressure: 30.21 "Hg

Humidity: 44%

Dew Point: 5 °F

Location of BridgewaterLocation

Past Weather in Bridgewater — Graph

°F

Bridgewater Temperature Yesterday

Maximum temperature yesterday: 37 °F (at 11:52 am)
Minimum temperature yesterday: 26 °F (at 11:52 pm)
Average temperature yesterday: 32 °F

High & Low Weather Summary for the Past Weeks

 TemperatureHumidityPressure
High61 °F (Dec 1, 4:52 am)97% (Nov 25, 7:52 am)30.28 "Hg (Nov 25, 7:52 am)
Low21 °F (Dec 4, 8:52 pm)36% (Dec 9, 1:52 pm)29.42 "Hg (Dec 1, 4:52 am)
Average40 °F76%29.97 "Hg
* Reported Nov 25 12:52 am — Dec 10 12:52 am, Bridgewater, Weather by CustomWeather, © 2016

Note: Actual official high and low records may vary slightly from our data, if they occured in-between our weather recording intervals... More about our weather records

Advertising

Bridgewater Weather History for the Previous 24 Hours

Scroll right to see more
 ConditionsComfort  
Time TempWeatherWind HumidityBarometerVisibility
12:52 am
Sat, Dec 10
24 °FClear.3 mph46%30.19 "Hg10 mi
11:52 pm
Fri, Dec 9
26 °FPassing clouds.8 mph42%30.18 "Hg10 mi
10:52 pm27 °FOvercast.9 mph42%30.17 "Hg10 mi
9:52 pm28 °FOvercast.8 mph45%30.16 "Hg10 mi
8:52 pm28 °FPassing clouds.6 mph45%30.15 "Hg10 mi
7:52 pm29 °FClear.6 mph43%30.14 "Hg10 mi
6:52 pm30 °FClear.9 mph43%30.11 "Hg10 mi
5:52 pm31 °FClear.6 mph41%30.07 "Hg10 mi
4:52 pm32 °FClear.7 mph41%30.05 "Hg10 mi
3:52 pm34 °FSunny.12 mph40%30.00 "Hg10 mi
2:52 pm36 °FPassing clouds.9 mph38%29.98 "Hg10 mi
1:52 pm37 °FSunny.12 mph36%29.96 "Hg10 mi
12:52 pm37 °FPassing clouds.12 mph37%29.95 "Hg10 mi
11:52 am37 °FSunny.12 mph37%29.95 "Hg10 mi
10:52 am36 °FPassing clouds.13 mph42%29.96 "Hg10 mi
9:52 am35 °FScattered clouds.10 mph48%29.97 "Hg10 mi
8:52 am34 °FSunny.6 mph54%29.95 "Hg10 mi
7:52 am31 °FSunny.6 mph59%29.93 "Hg10 mi
6:52 am30 °FClear.8 mph61%29.91 "Hg10 mi
5:52 am30 °FClear.6 mph59%29.89 "Hg10 mi
4:52 am31 °FClear.8 mph59%29.88 "Hg10 mi
3:52 am30 °FClear.7 mph59%29.87 "Hg10 mi
2:52 am31 °FClear.6 mph57%29.88 "Hg10 mi
Weather by CustomWeather, © 2016

See weather overviewHow to use our weather pages